Ephrata, WA

8:42 AM PDT on April 21, 2018 (GMT -0700)
Ephrata Municipal

Weather History for KEPH - October, 2011

Change the Weather History Date:

Sunday, October 2, 2011

  Actual Average Record
Temperature  
Mean Temperature 57 °F 57 °F  
Max Temperature 70 °F 71 °F 85 °F (1987)
Min Temperature 44 °F 44 °F 32 °F (2002)
Degree Days  
Heating Degree Days 8 8  
Month to date heating degree days 10 16  
Since 1 July heating degree days 65 143  
Cooling Degree Days 0 0  
Month to date cooling degree days 0 0  
Year to date cooling degree days 621 769  
Growing Degree Days 6 (Base 50)    
Moisture  
Dew Point 41 °F    
Average Humidity 62    
Maximum Humidity 83    
Minimum Humidity 40    
Precipitation  
Precipitation 0.00 in 0.02 in 0.28 in (1967)
Month to date precipitation T 0.03  
Year to date precipitation 4.15 5.05  
Sea Level Pressure  
Sea Level Pressure 29.91 in    
Wind  
Wind Speed 5 mph (NNE)    
Max Wind Speed 10 mph    
Max Gust Speed 14 mph    
Visibility 3 miles    
Events      
T = Trace of Precipitation, MM = Missing Value Source: NWS Daily Summary

Daily Weather History Graph

Daily Weather History Graph

Search for Another Location

Airport or City:

Astronomy

Oct. 02, 2011 Rise Set
Actual Time 6:58 AM PDT 6:35 PM PDT
Civil Twilight 6:27 AM PDT 7:06 PM PDT
Nautical Twilight 5:52 AM PDT 7:41 PM PDT
Astronomical Twilight 5:15 AM PDT 8:17 PM PDT
Moon 1:33 PM PDT (10/2) 10:16 PM PDT (10/2)
Length of Visible Light 12h 38m
Length of Day
11h 37m
Waxing Crescent, 36% of the Moon is Illuminated
Oct 2
Waxing Crescent
Oct 3
First Quarter
Oct 11
Full
Oct 19
Last Quarter
Oct 26
New

Hourly Weather History & Observations

Time (PDT) Temp. Windchill Dew Point Humidity Pressure Visibility Wind Dir Wind Speed Gust Speed Precip Events Conditions
12:53 AM 55.0 °F - 37.0 °F 51% 29.89 in 10.0 mi NW 6.9 mph - N/A   Clear
1:53 AM 46.0 °F - 37.0 °F 71% 29.91 in 10.0 mi Calm Calm - N/A   Clear
2:13 AM 46.4 °F - 37.4 °F 71% 29.92 in 0.2 mi Calm Calm - N/A   Haze
2:53 AM 46.9 °F - 37.0 °F 68% 29.91 in 0.2 mi North 4.6 mph - N/A   Haze
3:53 AM 45.0 °F 41.8 °F 39.0 °F 80% 29.91 in 0.2 mi North 5.8 mph - N/A   Haze
4:17 AM 44.6 °F 42.2 °F 39.2 °F 81% 29.92 in - North 4.6 mph - N/A   Clear
4:28 AM 44.6 °F 41.4 °F 39.2 °F 81% 29.92 in 0.2 mi NNE 5.8 mph - N/A   Haze
4:53 AM 46.0 °F 42.5 °F 39.9 °F 79% 29.92 in 0.2 mi ENE 6.9 mph - N/A   Haze
5:33 AM 46.4 °F 44.3 °F 39.2 °F 76% 29.94 in - North 4.6 mph - N/A   Mostly Cloudy
5:53 AM 46.0 °F 43.9 °F 39.0 °F 76% 29.94 in - NNE 4.6 mph - N/A   Partly Cloudy
6:53 AM 44.1 °F 40.8 °F 37.9 °F 79% 29.95 in - NNE 5.8 mph - N/A   Clear
8:53 AM 50.0 °F - 41.0 °F 71% 29.96 in - NE 6.9 mph - N/A   Mostly Cloudy
9:53 AM 57.9 °F - 41.0 °F 53% 29.97 in - ENE 5.8 mph - N/A   Scattered Clouds
10:53 AM 60.1 °F - 41.0 °F 49% 29.97 in - Variable 4.6 mph - N/A   Mostly Cloudy
11:53 AM 63.0 °F - 41.0 °F 45% 29.96 in - Calm Calm - N/A   Mostly Cloudy
12:53 PM 64.9 °F - 42.1 °F 43% 29.94 in - Calm Calm - N/A   Mostly Cloudy
2:53 PM 69.1 °F - 44.1 °F 40% 29.91 in - South 5.8 mph - N/A   Partly Cloudy
3:53 PM 69.1 °F - 44.1 °F 40% 29.89 in - South 10.4 mph - N/A   Clear
4:53 PM 68.0 °F - 44.1 °F 42% 29.88 in - SSE 5.8 mph - N/A   Partly Cloudy
5:53 PM 68.0 °F - 44.1 °F 42% 29.86 in - Calm Calm - N/A   Clear
6:53 PM 64.9 °F - 44.1 °F 47% 29.86 in - NE 4.6 mph - N/A   Clear
7:53 PM 63.0 °F - 44.1 °F 50% 29.85 in - North 4.6 mph - N/A   Partly Cloudy
8:53 PM 62.1 °F - 45.0 °F 53% 29.83 in - NNW 8.1 mph - N/A   Clear
10:53 PM 63.0 °F - 44.1 °F 50% 29.82 in - NNW 3.5 mph - N/A   Mostly Cloudy
11:53 PM 61.0 °F - 43.0 °F 52% 29.80 in - NNW 4.6 mph - N/A   Overcast